Flag for U.S.A. Weather past 2 weeks in Des Moines, Iowa, U.S.A.

Now
73 °F

Cloudy.


Feels Like: 76 °F
Forecast: 63 / 83 °F
Wind: No wind

Location: Des Moines International Airport

Current Time: Aug 4, 2015 at 1:05:29 PM

Latest Report: Aug 4, 2015 at 11:54 AM


Visibility: 10 mi

Pressure: 30.03 "Hg

Humidity: 62%

Dew point: 59 °F

Location of Des MoinesLocation

Historic Weather in Des Moines — Graph

°F

Des Moines temperature yesterday

Maximum temperature yesterday: 84 °F (at 4:54 PM)
Minimum temperature yesterday: 69 °F (at 5:54 AM)
Average temperature yesterday: 76 °F

Past Weeks' High & Low Weather Summary

 TemperatureHumidityPressure
High93 °F (Aug 2, 1:54 PM)94% (Jul 28, 10:59 PM)30.14 "Hg (Jul 28, 10:59 PM)
Low63 °F (Jul 21, 4:54 AM)29% (Jul 30, 2:54 PM)29.72 "Hg (Aug 2, 3:54 PM)
Average77 °F66%29.94 "Hg
* Reported Jul 20 11:54 AM — Aug 4 11:54 AM, Des Moines, Weather by CustomWeather, © 2015

Note: Actual official high and low records may vary slightly from our data, if they occured in-between our weather recording intervals... More about our weather records

Advertising

Des Moines weather history for previous 24 hours

 ConditionsComfort  
Time TempWeatherWind HumidityBarometerVisibility
11:54 AM
Tue, Aug 4
73 °FCloudy.No wind62%30.03 "Hg10 mi
10:54 AM73 °FMostly cloudy.No wind59%30.01 "Hg10 mi
9:54 AM73 °FMore clouds than sun.No wind66%30.02 "Hg10 mi
8:54 AM72 °FMore clouds than sun.5 mph68%30.01 "Hg10 mi
7:54 AM70 °FMore clouds than sun.3 mph71%29.98 "Hg10 mi
6:54 AM69 °FOvercast.No wind70%29.96 "Hg10 mi
5:54 AM67 °FPassing clouds.5 mph79%29.96 "Hg10 mi
4:54 AM68 °FPassing clouds.No wind73%29.94 "Hg10 mi
3:54 AM69 °FPassing clouds.No wind70%29.92 "Hg10 mi
2:54 AM69 °FPassing clouds.No wind70%29.92 "Hg10 mi
1:54 AM69 °FPassing clouds.No wind70%29.94 "Hg10 mi
12:54 AM67 °FPassing clouds.3 mph76%29.95 "Hg10 mi
11:54 PM
Mon, Aug 3
71 °FPassing clouds.3 mph63%29.95 "Hg10 mi
10:54 PM73 °FPassing clouds.3 mph57%29.94 "Hg10 mi
9:54 PM74 °FPassing clouds.3 mph52%29.93 "Hg10 mi
8:54 PM75 °FScattered clouds.3 mph50%29.92 "Hg10 mi
7:54 PM77 °FScattered clouds.6 mph47%29.91 "Hg10 mi
6:54 PM80 °FScattered clouds.8 mph41%29.90 "Hg10 mi
5:54 PM82 °FScattered clouds.9 mph40%29.91 "Hg10 mi
4:54 PM84 °FScattered clouds.8 mph40%29.90 "Hg10 mi
3:54 PM83 °FPassing clouds.3 mph40%29.92 "Hg10 mi
2:54 PM83 °FPassing clouds.No wind34%29.93 "Hg10 mi
1:54 PM82 °FPassing clouds.8 mph38%29.92 "Hg10 mi
Weather by CustomWeather, © 2015

See weather overviewHow to use our weather pages